Home > Time Zones > World Clock > Weather > France > Caen > Past weeks

Flag for France Weather past 2 weeks in Caen, France

Now
70 °F

Partly sunny.


Feels Like: 70 °F
Forecast: 53 / 78 °F
Wind: 6 mph from Northwest

Location: Caen Airport

Current Time: Jul 5, 2015 at 8:40:00 PM

Latest Report: Jul 5, 2015 at 8:00 PM


Visibility: N/A

Pressure: 30.12 "Hg

Humidity: 60%

Dew point: 55 °F

Location of CaenLocation

Historic Weather in Caen — Graph

°F

Caen temperature yesterday

Maximum temperature yesterday: 79 °F (at 3:30 PM)
Minimum temperature yesterday: 59 °F (at 11:30 PM)
Average temperature yesterday: 70 °F

Past Weeks' High & Low Weather Summary

 TemperatureHumidityPressure
High95 °F (Jul 1, 4:00 PM)100% (Jun 22, 4:00 PM)30.27 "Hg (Jun 22, 4:00 PM)
Low45 °F (Jun 24, 3:00 AM)31% (Jun 30, 4:30 PM)29.83 "Hg (Jul 1, 9:00 AM)
Average65 °F74%30.10 "Hg
* Reported Jun 20 7:00 PM — Jul 5 7:30 PM, Caen, Weather by CustomWeather, © 2015

Note: Actual official high and low records may vary slightly from our data, if they occured in-between our weather recording intervals... More about our weather records

Advertising

Caen weather history for previous 24 hours

 ConditionsComfort  
Time TempWeatherWind HumidityBarometerVisibility
7:30 PM
Sun, Jul 5
68 °FScattered clouds.6 mph64%30.09 "HgN/A
7:00 PM70 °FSunny.5 mph60%30.09 "Hg10 mi
6:30 PM72 °FPassing clouds.8 mph53%30.09 "HgN/A
6:00 PM70 °FSunny.12 mph60%30.09 "Hg10 mi
5:30 PM68 °FPassing clouds.12 mph60%30.09 "HgN/A
5:00 PM70 °FPartly sunny.14 mph57%30.09 "HgN/A
4:30 PM72 °FBroken clouds.15 mph53%30.09 "HgN/A
4:00 PM73 °FPassing clouds.14 mph53%30.07 "HgN/A
3:30 PM68 °FBroken clouds.10 mph73%30.07 "HgN/A
3:00 PM68 °FPartly sunny.6 mph78%30.07 "HgN/A
2:30 PM66 °FPartly sunny.6 mph83%30.07 "HgN/A
2:00 PM64 °FOvercast.3 mph83%30.07 "HgN/A
1:30 PM63 °FMostly cloudy.3 mph83%30.07 "HgN/A
1:00 PM61 °FLow clouds.2 mph88%30.07 "HgN/A
12:30 PM59 °FLow clouds.7 mph94%30.09 "HgN/A
12:00 PM57 °FLight rain. Partly sunny.7 mph100%30.09 "HgN/A
11:30 AM57 °FRain. Broken clouds.3 mph94%30.07 "HgN/A
11:00 AM57 °FRain. Cloudy.7 mph94%30.04 "Hg5 mi
10:30 AM57 °FLight rain. Cloudy.9 mph94%30.07 "Hg6 mi
10:00 AM57 °FRain. Mostly cloudy.5 mph94%30.09 "Hg6 mi
9:30 AM59 °FThundershowers. Fog.2 mph94%30.09 "Hg3 mi
9:00 AM59 °FLight rain. Mostly cloudy.8 mph94%30.09 "HgN/A
8:30 AM59 °FSunny.5 mph88%30.09 "Hg10 mi
8:00 AM59 °FBroken clouds.5 mph94%30.09 "HgN/A
7:30 AM59 °FLight rain. Partly sunny.5 mph94%30.09 "Hg6 mi
7:00 AM59 °FOvercast.3 mph94%30.12 "HgN/A
6:30 AM57 °FOvercast.5 mph100%30.12 "HgN/A
5:30 AM57 °FPartly cloudy.5 mph94%30.12 "HgN/A
5:00 AM57 °FPassing clouds.2 mph88%30.12 "HgN/A
4:30 AM57 °FClear.2 mph94%30.12 "Hg10 mi
4:00 AM57 °FClear.3 mph94%30.12 "Hg10 mi
3:30 AM57 °FClear.2 mph88%30.12 "Hg10 mi
3:00 AM59 °FClear.2 mph88%30.15 "Hg10 mi
2:30 AM59 °FClear.2 mph82%30.15 "Hg10 mi
2:00 AM59 °FClear.2 mph82%30.15 "Hg10 mi
1:30 AM59 °FClear.No wind88%30.15 "Hg10 mi
1:00 AM59 °FClear.No wind88%30.18 "Hg10 mi
12:30 AM59 °FClear.2 mph88%30.18 "Hg10 mi
12:00 AM59 °FClear.1 mph88%30.18 "Hg10 mi
11:30 PM
Sat, Jul 4
59 °FClear.1 mph88%30.18 "Hg10 mi
11:00 PM61 °FSunny.2 mph83%30.18 "Hg10 mi
10:30 PM63 °FSunny.3 mph73%30.18 "Hg10 mi
10:00 PM63 °FSunny.3 mph73%30.15 "Hg10 mi
9:30 PM63 °FPassing clouds.6 mph73%30.15 "HgN/A
9:00 PM64 °FSunny.7 mph68%30.18 "Hg10 mi
8:30 PM66 °FPassing clouds.7 mph68%30.18 "HgN/A
8:00 PM68 °FSunny.10 mph64%30.18 "Hg10 mi
Weather by CustomWeather, © 2015

See weather overviewHow to use our weather pages